RH
16 14 16 18 23 22 23 23 35 35 39 34 34 32 27 22 21 22 20 22 23 21 17 18 18 18 17 16 16 15 14 16 28 42 57 40 41 39 30 35 29 26 26 47 78 73 72 59 85
15 15 16 18 19 21 28 30 38 44 42 46 39 38 36 30 29 24 20 20 20 19 21 18 19 17 20 19 18 18 14 14 13 19 29 46 73 66 52 30 32 36 31 31 51 88 89 93 67
14 14 16 18 19 24 24 23 28 27 22 30 35 35 31 28 25 19 19 18 17 17 19 19 20 19 19 16 17 18 15 18 22 16 17 34 35 51 31 40 54 61 60 45 45 59 98 100 100
14 14 17 18 17 22 24 25 23 21 21 22 27 26 27 27 20 21 17 19 17 15 15 18 19 20 20 17 16 13 13 13 18 28 20 12 11 31 62 91 99 62 84 96 87 71 90 100 100
17 22 18 20 20 20 22 21 21 20 16 16 21 26 25 22 22 23 20 16 15 14 15 16 16 18 22 18 18 15 16 14 14 14 22 27 30 25 49 90 100 88 94 91 100 100 100 100 100
13 15 18 18 19 19 20 19 17 27 32 29 33 22 23 20 21 20 17 17 17 16 14 16 18 18 20 18 18 19 17 18 15 14 15 26 50 48 50 77 85 78 97 100 100 100 100 100 100
16 15 18 21 24 25 27 37 36 36 52 59 58 55 26 24 20 22 16 15 16 16 16 16 17 19 21 18 23 24 24 24 23 22 20 16 18 46 61 50 54 54 92 100 100 100 100 99 100
19 22 18 24 28 35 36 40 43 48 58 58 65 76 45 23 40 20 18 18 18 28 25 16 16 21 22 21 23 24 25 25 28 33 31 28 24 21 26 51 56 54 69 98 100 100 100 100 94
41 22 26 24 22 42 50 53 50 52 68 54 48 56 63 47 29 20 16 21 21 39 32 21 17 23 22 18 20 19 19 21 20 24 29 29 32 29 25 28 51 72 78 80 97 100 100 99 95
98 52 36 31 28 28 30 45 63 68 84 88 60 59 65 52 30 19 15 79 38 52 16 17 20 26 20 18 20 22 20 21 22 20 22 26 26 29 31 30 31 31 55 100 100 100 100 100 90
48 100 60 47 38 40 35 33 36 47 92 100 100 85 77 45 66 34 58 100 34 30 19 20 24 36 28 34 25 24 20 20 32 33 25 24 22 25 24 28 31 33 35 34 38 97 100 100 100
37 42 90 73 60 46 50 53 49 44 58 93 99 88 72 62 60 63 68 70 39 47 23 15 26 35 40 42 44 33 33 26 23 28 25 22 24 25 24 26 25 26 31 28 30 28 30 37 91
42 43 47 51 62 69 64 59 57 60 62 75 84 78 67 72 59 50 70 50 55 39 24 17 23 34 44 54 52 55 50 37 30 45 38 28 36 42 33 32 30 28 23 24 23 26 24 32 38
24 40 44 40 40 59 86 84 71 67 75 79 80 79 70 59 75 49 63 62 40 14 14 19 25 36 58 80 77 69 65 53 59 47 60 30 32 29 25 47 36 30 29 29 29 26 25 26 29
14 16 18 30 36 38 56 54 67 56 62 69 69 71 70 72 40 40 37 47 14 15 18 24 26 39 43 46 67 51 70 71 79 69 85 55 46 26 42 34 42 41 37 33 35 36 38 30 29
12 9 11 14 15 19 20 21 26 36 45 46 52 53 63 56 43 26 43 24 16 24 24 30 34 37 40 46 52 61 82 100 100 93 69 52 54 39 36 40 57 48 43 36 47 39 35 33 32
15 11 8 8 11 14 17 15 19 25 27 26 26 18 17 30 37 32 41 18 17 26 34 38 34 48 68 45 72 86 100 100 100 68 61 52 51 38 44 59 59 40 44 41 55 51 34 35 33
27 18 12 11 10 15 11 10 12 16 14 12 15 14 13 13 15 31 16 18 20 29 40 49 73 60 65 68 91 67 100 100 92 62 54 54 55 45 58 63 48 46 55 51 64 52 46 44 40
35 30 17 18 14 18 17 21 17 18 18 19 16 12 13 16 34 21 25 35 57 59 68 91 92 67 68 67 77 78 100 100 78 59 58 63 56 50 48 45 45 58 75 63 72 56 56 55 48
38 44 34 25 24 25 31 37 32 33 30 22 30 36 33 29 25 29 32 59 94 100 100 100 88 72 63 62 66 85 100 96 79 76 65 67 60 54 58 64 71 84 72 68 66 66 76 59 50
42 52 57 59 37 42 49 62 67 57 51 53 52 55 62 68 62 64 78 94 90 81 80 75 76 67 74 73 64 84 83 97 98 69 52 57 55 55 53 70 81 98 90 73 90 80 76 73 55
48 58 54 40 59 76 87 94 100 83 91 89 84 80 79 78 73 68 58 45 47 57 65 69 66 66 92 72 88 92 90 100 84 50 58 52 57 54 70 97 99 100 100 88 88 77 81 73 74
50 38 25 27 41 39 100 35 100 100 100 90 87 84 80 78 77 70 49 38 45 50 61 78 87 93 93 96 88 89 100 70 51 42 52 59 53 60 66 99 100 100 100 100 85 100 90 69 52
30 34 33 33 33 33 57 30 37 100 100 72 67 85 92 76 76 86 67 53 54 74 83 78 93 99 100 86 86 100 81 66 75 60 49 57 64 75 89 100 100 100 100 92 99 95 96 71 66
40 28 34 36 48 39 40 34 61 98 100 98 74 64 59 57 60 70 78 84 89 87 92 100 100 100 82 76 85 67 75 83 94 71 72 70 89 95 100 100 100 100 100 86 90 100 90 97 70
48 52 64 36 38 35 22 28 68 78 100 100 100 90 83 56 45 48 62 68 57 75 85 80 78 86 80 89 98 100 99 100 92 80 85 82 100 100 100 100 100 100 100 93 100 100 88 90 70
66 88 91 49 37 46 54 52 69 58 77 86 100 100 96 75 83 92 94 94 97 74 82 100 100 100 100 99 98 92 75 98 97 99 92 88 89 100 100 100 100 100 95 100 98 82 77 87 71
100 84 82 91 90 76 69 70 43 43 62 100 100 100 100 100 100 100 100 96 92 100 99 100 100 100 100 95 92 74 75 84 83 79 80 93 100 100 99 90 98 99 91 97 100 89 76 85 82
100 99 100 100 100 94 68 49 76 97 97 100 100 94 98 100 100 100 100 100 100 100 100 100 100 100 100 96 94 96 89 88 76 85 99 100 95 94 86 87 100 84 95 100 98 89 87 84 94
100 100 100 100 100 89 75 43 98 100 100 94 100 100 100 100 100 100 100 100 100 100 100 100 100 100 100 100 96 92 90 82 97 100 95 94 96 89 94 90 90 84 91 96 89 86 88 87 79
Wind_Speed
19 21 21 21 18 21 22 24 25 25 23 22 20 16 16 15 19 20 18 21 14 12 15 13 12 10 13 15 20 25 31 37 40 40 41 44 44 50 58 62 63 62 59 56 51 49 45 44 42
19 21 20 20 19 20 20 21 23 24 22 19 19 22 21 21 21 21 24 19 22 19 19 21 15 15 15 16 15 18 24 29 34 38 37 35 31 42 47 53 60 64 64 61 56 52 50 47 46
16 14 16 18 16 17 24 24 17 21 22 20 16 16 20 22 20 23 19 19 21 24 23 24 19 15 16 19 18 19 22 25 28 32 33 32 35 30 32 44 53 63 64 63 58 55 50 48 46
11 13 11 15 20 21 20 21 20 19 15 18 17 12 13 13 14 15 11 12 12 15 17 22 18 12 11 19 24 28 29 24 26 28 29 28 29 27 24 24 38 51 63 61 57 55 55 52 50
6 10 8 12 15 15 15 18 14 16 15 14 17 12 12 14 9 8 8 5 20 18 17 24 26 14 9 13 19 25 24 28 29 25 27 27 27 27 30 32 40 39 50 62 59 56 55 56 53
13 16 15 13 13 13 13 14 13 15 17 16 16 13 13 11 5 11 10 18 12 22 32 37 36 26 10 12 14 18 20 23 31 31 27 24 25 26 27 31 40 41 42 46 61 59 59 59 58
6 8 13 14 14 16 13 11 13 12 14 15 15 18 16 12 13 12 16 22 26 31 34 38 34 36 19 13 15 15 17 20 27 28 25 23 20 19 23 31 31 36 41 42 44 57 57 59 61
9 7 2 3 2 3 3 3 8 9 11 13 16 15 15 11 9 12 12 22 28 30 33 34 30 32 29 30 25 25 29 33 38 38 29 28 25 17 14 18 28 35 35 36 40 44 52 58 62
8 12 10 7 4 4 4 3 3 8 9 13 12 18 20 17 14 19 8 19 29 29 30 29 31 32 35 31 24 21 24 28 32 32 30 22 29 30 20 17 17 24 32 38 42 47 48 48 56
11 7 8 13 13 12 8 7 7 7 8 11 15 18 20 17 17 20 17 19 25 24 24 19 27 32 33 33 34 32 30 14 33 40 31 28 31 22 31 29 26 26 27 31 35 42 52 59 61
10 11 9 11 16 13 15 16 14 17 14 13 18 20 21 19 20 18 18 17 19 24 21 27 28 31 34 36 43 43 45 31 33 43 49 25 44 22 28 35 30 27 20 23 29 41 51 57 62
12 11 13 14 15 16 16 18 18 20 18 17 18 20 21 19 21 18 16 20 21 25 24 31 29 31 35 41 43 46 48 48 45 49 53 41 51 50 28 30 33 30 27 27 21 29 35 41 60
15 15 14 14 14 16 16 17 17 18 22 22 21 22 20 21 25 20 18 19 22 29 31 33 35 33 36 40 43 46 47 48 49 49 51 47 54 57 55 50 50 47 38 44 37 34 44 35 30
15 16 15 16 16 17 20 20 20 20 19 21 23 22 21 23 27 19 23 23 29 26 28 29 32 34 37 40 42 44 47 49 48 50 51 55 56 56 58 57 58 56 60 63 61 54 52 49 43
15 13 13 17 17 18 20 21 22 23 24 24 24 25 23 25 25 20 23 23 29 32 33 35 35 35 35 37 39 44 47 50 50 51 52 54 56 59 61 62 63 64 69 71 65 67 75 65 52
17 15 16 17 17 17 17 20 23 23 25 25 24 24 24 25 25 24 23 26 27 30 33 35 39 39 40 42 43 48 49 51 51 51 53 57 58 62 64 68 68 71 70 74 76 78 77 74 68
21 21 17 17 17 18 21 20 22 23 22 22 23 22 18 19 21 26 30 30 31 35 38 40 42 44 47 49 48 51 53 50 51 54 60 62 62 67 69 71 74 75 77 82 82 87 84 85 81
28 24 23 20 19 20 19 20 22 23 24 22 22 22 21 22 22 27 31 34 34 36 38 41 45 48 50 53 52 53 53 52 54 61 63 65 68 69 71 74 77 79 81 84 88 89 88 90 86
29 29 25 22 21 23 23 25 24 25 29 26 26 27 28 29 29 32 37 40 42 44 45 45 50 53 54 53 54 56 54 54 60 64 66 69 72 75 76 83 82 84 87 91 92 95 96 96 94
29 28 31 29 25 25 24 29 29 28 30 33 33 30 30 33 35 38 40 43 44 46 49 51 54 56 57 54 55 57 58 59 63 68 69 71 73 73 77 79 83 85 88 93 96 99 102 101 97
29 28 26 30 31 28 31 34 35 35 36 35 38 39 38 38 39 39 41 44 47 48 50 52 55 57 58 54 55 60 62 65 65 70 77 77 78 79 80 84 85 88 92 99 100 104 106 107 102
32 29 29 30 31 33 35 31 40 38 40 42 43 44 45 44 45 44 45 44 46 48 51 54 57 59 56 57 59 63 67 67 71 76 75 78 80 81 84 86 89 90 97 104 106 110 112 111 109
35 35 37 38 35 33 40 36 42 45 43 42 43 45 48 50 50 50 48 47 49 51 55 58 60 58 60 64 67 66 68 71 74 78 78 80 86 86 87 89 92 96 101 108 111 110 114 113 111
42 43 42 40 42 38 40 41 35 50 49 51 51 51 50 52 55 55 55 56 56 54 58 64 65 64 64 66 70 69 72 75 78 80 83 84 88 89 92 94 99 102 108 113 114 116 116 118 111
41 45 43 38 40 34 40 40 40 47 54 55 55 53 53 54 56 59 61 63 65 64 67 70 71 73 71 71 73 75 77 81 82 84 86 89 90 91 94 99 105 108 114 117 119 122 120 122 107
47 48 50 46 44 44 42 37 38 48 53 57 59 59 60 62 61 59 60 61 62 61 65 72 72 74 75 76 79 82 84 86 88 88 91 93 96 98 101 105 110 113 116 122 122 124 121 115 98
53 55 58 55 52 45 44 42 45 50 57 61 64 65 67 69 68 66 66 67 66 70 72 74 76 75 76 79 82 85 90 92 92 95 97 99 100 102 106 109 114 117 120 123 124 126 113 104 86
64 64 64 66 64 56 51 48 47 50 56 62 66 69 70 71 71 71 71 72 72 73 74 77 80 78 80 84 84 89 92 93 95 98 101 104 107 110 113 115 117 123 124 125 125 122 104 93 75
74 72 74 77 75 74 65 51 57 62 66 69 72 74 74 74 76 78 80 81 80 82 84 84 85 87 89 91 93 96 97 100 102 103 106 109 110 113 115 119 122 126 127 123 127 106 91 77 67
81 81 82 83 80 81 79 56 65 70 75 78 81 81 80 81 83 82 82 84 86 87 87 89 93 95 98 99 102 101 103 105 107 109 111 112 115 117 120 122 125 128 130 125 112 89 79 65 60
Wind_Direction
52 60 67 67 73 73 79 82 75 78 80 82 83 78 83 74 96 99 97 86 77 80 57 34 17 340 316 305 281 274 274 269 268 268 267 264 262 261 256 252 250 250 248 248 250 249 250 249 247
61 76 76 73 75 82 88 83 80 85 92 95 93 102 98 97 100 99 92 81 75 61 39 23 14 9 341 334 318 293 282 271 263 262 263 257 254 257 256 253 250 247 246 246 246 248 248 251 250
71 88 68 75 81 92 92 94 98 90 82 78 86 86 100 102 99 101 82 70 63 54 51 33 30 17 357 334 330 326 314 296 278 266 258 256 254 259 264 253 250 245 243 242 242 244 246 247 249
88 94 83 87 98 111 104 100 106 92 81 71 75 113 104 113 103 76 86 70 40 43 37 39 38 9 350 332 326 320 328 321 304 296 284 265 258 252 240 245 251 247 244 245 243 243 243 246 247
104 99 89 99 111 113 105 99 96 76 78 72 71 70 84 94 98 80 48 22 30 35 26 24 13 17 354 340 334 331 340 332 340 324 307 289 272 250 242 238 249 251 247 244 246 244 243 244 245
69 82 94 103 116 114 115 109 115 79 71 65 54 53 62 53 19 37 44 37 9 29 26 20 20 16 348 339 339 353 346 347 339 340 343 323 298 278 247 247 245 251 255 253 246 247 245 244 243
5 80 106 97 106 122 120 86 73 63 47 32 37 28 34 28 29 13 36 34 34 32 26 26 20 39 29 338 26 30 35 23 11 9 1 354 341 300 291 262 253 256 261 257 254 249 249 248 248
287 304 335 116 135 102 84 80 44 40 31 22 13 10 16 11 359 5 9 6 21 22 20 24 31 36 48 39 53 53 53 48 42 37 18 12 359 337 310 292 269 263 265 257 253 256 254 254 251
287 269 292 277 240 252 274 264 300 353 3 352 350 354 350 355 343 347 15 343 8 12 11 10 20 31 45 43 50 35 38 46 39 45 36 31 22 17 348 320 299 285 272 273 259 253 253 258 257
303 275 284 283 279 280 266 288 309 307 321 336 334 338 338 343 344 341 347 340 359 356 10 15 14 20 27 29 28 31 31 33 29 27 19 34 36 48 21 12 18 344 303 285 272 268 264 261 260
313 282 283 302 299 295 297 295 303 297 294 306 328 327 326 333 340 330 336 338 346 349 356 357 359 0 10 12 16 14 22 16 12 9 8 11 9 15 359 1 3 358 3 333 304 284 274 266 263
316 307 285 293 301 305 295 297 301 294 300 298 303 312 314 318 331 316 327 317 328 333 336 333 337 351 357 358 4 8 7 8 2 3 2 1 358 357 347 349 348 340 346 340 304 306 301 287 275
310 305 297 289 296 296 297 293 288 294 299 307 306 304 302 307 317 314 305 308 320 330 326 326 335 341 345 348 355 356 358 359 355 355 355 353 349 346 347 344 346 345 336 339 328 312 333 305 286
307 305 295 298 299 295 293 294 292 292 296 298 303 303 298 298 312 305 302 307 323 330 322 331 330 339 339 340 343 347 347 349 347 347 344 344 345 341 341 337 337 339 337 339 334 332 321 316 298
306 306 317 308 290 286 287 288 287 288 290 292 295 300 297 296 308 304 302 316 323 321 323 328 338 337 336 337 339 340 340 341 340 340 337 336 336 338 335 336 335 336 335 336 336 337 336 330 319
298 303 311 316 321 305 304 310 297 293 291 290 291 291 288 293 295 305 303 314 317 320 324 329 333 334 333 334 335 337 335 334 335 334 333 332 332 333 332 333 333 333 332 333 334 334 333 330 326
290 287 297 302 307 313 315 313 309 300 293 293 294 298 298 299 291 297 298 304 310 314 316 322 327 329 329 329 333 331 330 328 329 329 329 328 328 330 330 330 330 329 330 330 330 330 327 328 325
283 281 289 295 294 295 303 304 304 307 304 303 296 292 303 305 304 300 298 301 304 313 317 321 323 323 324 326 329 327 324 323 323 326 324 324 326 327 325 326 326 327 327 327 327 326 325 326 324
288 289 275 282 284 282 287 289 292 287 288 297 302 297 300 298 288 292 296 301 305 310 315 316 318 319 320 322 323 320 321 319 320 323 323 323 325 326 325 325 326 328 327 327 325 324 322 322 321
292 294 283 280 285 283 286 284 286 288 286 281 290 297 297 296 292 292 292 300 307 310 311 312 312 314 315 318 320 321 317 315 318 321 322 320 321 322 323 324 324 325 325 324 325 324 324 322 319
288 289 294 292 279 283 289 294 295 290 288 287 286 286 286 290 291 293 295 300 303 305 308 311 310 312 315 316 314 316 315 313 313 318 319 321 321 320 322 324 322 322 324 324 323 322 322 321 318
279 283 292 295 300 285 284 294 294 292 290 289 289 289 288 289 291 292 293 296 301 306 310 312 315 313 309 309 314 316 316 314 317 318 318 321 321 321 320 320 319 319 320 322 322 320 319 318 317
279 283 288 289 288 292 292 292 295 298 296 294 292 293 293 290 288 288 290 294 297 304 311 312 309 307 306 308 312 314 312 317 316 317 315 316 319 321 320 318 318 318 318 320 318 319 317 315 315
280 283 287 291 289 284 282 292 294 294 292 293 297 295 297 296 293 291 291 294 294 295 303 306 306 307 308 308 308 306 310 312 313 315 315 313 317 317 317 316 316 316 318 319 318 317 317 316 314
279 284 284 285 285 292 294 296 296 287 292 296 295 296 297 299 298 297 298 302 298 296 301 301 300 301 302 305 308 308 308 310 309 310 312 311 313 313 314 314 315 315 316 319 318 314 315 315 311
276 280 280 280 284 285 289 295 286 289 288 289 291 291 292 295 298 297 296 297 298 297 299 304 304 301 302 304 307 306 305 306 306 306 310 310 311 312 312 312 313 313 315 316 313 314 313 311 307
273 275 276 279 282 280 280 284 283 283 282 286 285 287 291 293 294 295 294 296 297 299 300 298 301 300 298 302 303 304 305 306 307 305 307 309 310 311 311 312 314 313 315 315 313 315 312 308 303
274 274 277 279 278 278 279 275 279 277 279 281 283 286 288 289 290 291 291 292 293 295 297 296 298 299 299 300 301 303 306 306 307 308 309 311 311 311 313 312 312 314 313 314 313 313 308 305 299
279 281 280 282 284 282 277 282 282 281 278 279 282 284 285 287 288 289 292 293 293 294 294 294 296 295 296 299 299 301 303 306 308 309 311 310 310 311 311 311 309 312 313 313 313 310 305 299 293
280 281 280 280 283 284 283 283 284 283 282 283 283 284 286 287 288 289 292 294 295 294 294 296 296 296 297 299 302 303 305 307 308 307 309 309 307 308 311 310 310 311 312 312 311 305 300 293 287